FW2323 Weather Reports


time (UTC)temp
F
wind
direction
speed
knots
gust
knots
rain 1hr
in
rain 24hr
in
rain mn
in
humidity
%
barometer
mb
20260504100303 73 89 1.7 10.4 0.00 0.00 0.00 40 1018.2
20260504081802 66 68 0.0 0.0 0.00 0.00 0.00 48 1019.0
20260504081303 66 105 0.0 0.0 0.00 0.00 0.00 49 1019.2
20260504080803 64 27 0.0 0.0 0.00 0.00 0.00 51 1019.2
20260504070302 63 38 0.0 0.0 0.00 0.00 0.00 52 1019.1
20260504050304 58 265 0.0 0.0 0.00 0.00 0.00 62 1018.9
20260504045802 57 261 0.0 0.0 0.00 0.00 0.00 64 1018.7
20260504045304 56 251 0.0 0.0 0.00 0.00 0.00 65 1018.7
20260504044804 55 239 0.0 0.0 0.00 0.00 0.00 67 1018.7
20260504044303 55 239 0.0 1.7 0.00 0.00 0.00 66 1018.5
20260504043803 55 239 0.0 0.0 0.00 0.00 0.00 65 1018.5
20260504043303 55 239 0.0 0.0 0.00 0.00 0.00 65 1018.5
20260504042803 55 239 0.0 0.0 0.00 0.00 0.00 65 1018.4
20260504042304 56 239 0.0 0.0 0.00 0.00 0.00 64 1018.4
20260504041802 55 255 0.0 0.0 0.00 0.00 0.00 63 1018.4
20260504041303 55 247 0.0 0.0 0.00 0.00 0.00 63 1018.4
20260504040803 55 256 0.0 0.0 0.00 0.00 0.00 63 1018.4
20260504040309 55 257 0.0 0.0 0.00 0.00 0.00 62 1018.4
20260504035802 55 257 0.0 0.0 0.00 0.00 0.00 62 1018.4
20260504035304 55 257 0.0 0.0 0.00 0.00 0.00 62 1018.4
20260504034803 55 257 0.0 0.0 0.00 0.00 0.00 61 1018.4
20260504033803 55 239 0.0 0.0 0.00 0.00 0.00 61 1018.4
20260504033303 56 239 0.0 0.0 0.00 0.00 0.00 61 1018.4
20260504032802 56 237 0.0 0.0 0.00 0.00 0.00 61 1018.4
20260504032304 56 237 0.0 0.0 0.00 0.00 0.00 61 1018.4
20260504031803 56 238 0.0 0.0 0.00 0.00 0.00 61 1018.4
20260504030803 56 238 0.0 0.0 0.00 0.00 0.00 60 1018.3
20260504030304 56 242 0.0 0.0 0.00 0.00 0.00 60 1018.3
20260504025802 56 244 0.0 0.0 0.00 0.00 0.00 60 1018.4
20260504025304 57 244 0.0 0.0 0.00 0.00 0.00 59 1018.4
20260504024803 57 244 0.0 0.0 0.00 0.00 0.00 59 1018.4
20260504024304 57 244 0.0 0.0 0.00 0.00 0.00 59 1018.5
20260504023802 57 244 0.0 0.0 0.00 0.00 0.00 59 1018.5
20260504023303 57 244 0.0 0.0 0.00 0.00 0.00 59 1018.5
20260504022803 57 244 0.0 0.0 0.00 0.00 0.00 59 1018.5
20260504022304 57 244 0.0 0.0 0.00 0.00 0.00 58 1018.5
20260504020303 57 259 0.0 0.0 0.00 0.00 0.00 60 1018.5
20260504015803 57 259 0.0 0.0 0.00 0.00 0.00 59 1018.4
20260504015304 58 261 0.0 0.0 0.00 0.00 0.00 57 1018.4
20260504014303 58 261 0.0 0.0 0.00 0.00 0.00 56 1018.4
20260504013304 59 261 0.0 0.0 0.00 0.00 0.00 55 1018.4
20260504012803 59 261 0.0 0.0 0.00 0.00 0.00 54 1018.3
20260504011803 59 253 0.0 0.0 0.00 0.00 0.00 52 1018.3
20260504011303 59 263 0.0 0.0 0.00 0.00 0.00 53 1018.2
20260504010803 59 228 0.0 0.0 0.00 0.00 0.00 54 1018.2
20260504010305 59 228 0.0 0.0 0.00 0.00 0.00 54 1018.2
20260504005804 59 228 0.0 0.0 0.00 0.00 0.00 54 1018.3
20260504005304 59 231 0.0 0.0 0.00 0.00 0.00 55 1018.3
20260504004803 59 231 0.0 0.0 0.00 0.00 0.00 54 1018.3
20260504004303 59 231 0.0 0.0 0.00 0.00 0.00 54 1018.4
20260504003803 59 231 0.0 0.0 0.00 0.00 0.00 53 1018.4
20260504003304 59 233 0.0 0.0 0.00 0.00 0.00 53 1018.4
20260504002802 59 233 0.0 0.0 0.00 0.00 0.00 53 1018.5
20260504002304 59 233 0.0 0.0 0.00 0.00 0.00 53 1018.5
20260504001803 59 233 0.0 0.0 0.00 0.00 0.00 53 1018.5
20260504001302 59 233 0.0 0.0 0.00 0.00 0.00 53 1018.6
20260504000803 59 233 0.0 0.0 0.00 0.00 0.00 52 1018.6
20260504000303 59 233 0.0 0.0 0.00 0.00 0.00 52 1018.6
20260503235804 59 233 0.0 0.0 0.00 0.00 0.00 52 1018.7
20260503235304 59 233 0.0 0.0 0.00 0.00 0.00 52 1018.7
20260503234303 60 233 0.0 0.0 0.00 0.00 0.00 51 1018.7
20260503233804 60 233 0.0 0.0 0.00 0.00 0.00 52 1018.7
20260503233304 60 233 0.0 0.0 0.00 0.00 0.00 52 1018.7
20260503232803 60 226 0.0 0.0 0.00 0.00 0.00 52 1018.7
20260503232305 60 226 0.0 0.0 0.00 0.00 0.00 51 1018.7
20260503231803 60 226 0.0 0.0 0.00 0.00 0.00 51 1018.7
20260503230803 60 226 0.0 0.0 0.00 0.00 0.00 51 1018.8
20260503230303 60 226 0.0 0.0 0.00 0.00 0.00 49 1018.8
20260503225803 60 226 0.0 0.0 0.00 0.00 0.00 50 1018.9
20260503224804 60 226 0.0 0.0 0.00 0.00 0.00 50 1018.9
20260503223803 60 226 0.0 0.0 0.00 0.00 0.00 50 1019.0
20260503222803 61 226 0.0 0.0 0.00 0.00 0.00 48 1018.8
20260503222304 61 226 0.0 0.0 0.00 0.00 0.00 48 1018.8
20260503221803 61 226 0.0 0.0 0.00 0.00 0.00 47 1018.8
20260503220803 61 226 0.0 0.0 0.00 0.00 0.00 47 1018.7
20260503220303 61 226 0.0 0.0 0.00 0.00 0.00 47 1018.7
20260503215304 60 226 0.0 0.0 0.00 0.00 0.00 47 1018.7
20260503214804 60 227 0.0 0.0 0.00 0.00 0.00 48 1018.7
20260503214303 60 227 0.0 0.0 0.00 0.00 0.00 48 1018.7
20260503213803 61 227 0.0 0.0 0.00 0.00 0.00 49 1018.7
20260503213303 61 226 0.0 0.0 0.00 0.00 0.00 49 1018.7
20260503212804 61 235 0.0 0.0 0.00 0.00 0.00 48 1018.7
20260503212305 61 253 0.0 0.0 0.00 0.00 0.00 48 1018.7
20260503211803 61 253 0.0 0.0 0.00 0.00 0.00 47 1018.7
20260503211304 61 253 0.0 0.0 0.00 0.00 0.00 48 1018.6
20260503210804 61 253 0.0 0.0 0.00 0.00 0.00 48 1018.6
20260503210303 61 254 0.0 0.0 0.00 0.00 0.00 48 1018.6
20260503205803 61 260 0.0 0.0 0.00 0.00 0.00 47 1018.5
20260503205304 61 260 0.0 0.0 0.00 0.00 0.00 46 1018.5
20260503204804 62 260 0.0 0.0 0.00 0.00 0.00 47 1018.5
20260503204304 61 261 0.0 0.0 0.00 0.00 0.00 46 1018.6
20260503203803 61 229 0.0 0.0 0.00 0.00 0.00 46 1018.6
20260503202802 62 229 0.0 0.0 0.00 0.00 0.00 45 1018.7
20260503202304 62 229 0.0 0.0 0.00 0.00 0.00 44 1018.7
20260503201804 63 229 0.0 0.0 0.00 0.00 0.00 44 1018.7
20260503201303 63 229 0.0 0.0 0.00 0.00 0.00 43 1018.5
20260503200803 63 229 0.0 0.0 0.00 0.00 0.00 42 1018.5
20260503200303 63 229 0.0 0.0 0.00 0.00 0.00 42 1018.5
20260503195803 64 229 0.0 0.0 0.00 0.00 0.00 42 1018.3
20260503195304 64 229 0.0 0.0 0.00 0.00 0.00 41 1018.3
20260503194804 64 220 0.0 0.0 0.00 0.00 0.00 41 1018.3
20260503194305 64 223 0.0 0.0 0.00 0.00 0.00 41 1018.1
20260503193803 65 214 0.0 0.0 0.00 0.00 0.00 41 1018.1
20260503193303 65 214 0.0 0.0 0.00 0.00 0.00 40 1018.1
20260503192803 65 230 0.0 0.0 0.00 0.00 0.00 39 1018.0
20260503192305 65 213 0.0 0.0 0.00 0.00 0.00 39 1018.0
20260503191803 65 216 0.0 0.0 0.00 0.00 0.00 39 1018.0
20260503191304 65 229 0.0 0.0 0.00 0.00 0.00 39 1017.9
20260503190804 65 222 0.0 0.0 0.00 0.00 0.00 39 1017.9
20260503190303 65 221 0.0 0.0 0.00 0.00 0.00 38 1017.9
20260503185805 66 225 0.0 0.0 0.00 0.00 0.00 38 1017.8
20260503185304 66 224 0.0 0.0 0.00 0.00 0.00 38 1017.8
20260503184805 66 224 0.0 0.0 0.00 0.00 0.00 38 1017.8
20260503184303 66 207 0.0 0.0 0.00 0.00 0.00 38 1017.6
20260503183803 66 209 0.0 0.0 0.00 0.00 0.00 37 1017.6
20260503183303 67 216 0.0 0.0 0.00 0.00 0.00 38 1017.6
20260503182804 67 210 0.0 0.0 0.00 0.00 0.00 38 1017.5
20260503181803 68 212 0.9 5.2 0.00 0.00 0.00 37 1017.5
20260503181303 69 225 0.9 4.3 0.00 0.00 0.00 37 1017.4
20260503180303 69 217 2.6 7.8 0.00 0.00 0.00 36 1017.4
20260503175803 70 204 2.6 7.0 0.00 0.00 0.00 35 1017.2
20260503174803 70 217 0.0 8.7 0.00 0.00 0.00 35 1017.2
20260503174303 70 212 0.9 5.2 0.00 0.00 0.00 35 1017.3
20260503173804 70 215 0.9 0.0 0.00 0.00 0.00 36 1017.3
20260503173303 70 186 1.7 6.1 0.00 0.00 0.00 34 1017.3
20260503172803 71 202 1.7 6.1 0.00 0.00 0.00 35 1017.3
20260503172305 71 209 1.7 6.1 0.00 0.00 0.00 35 1017.3
20260503171803 71 222 1.7 7.0 0.00 0.00 0.00 35 1017.3
20260503171303 71 211 1.7 5.2 0.00 0.00 0.00 35 1017.3
20260503170803 71 207 1.7 8.7 0.00 0.00 0.00 35 1017.3
20260503150803 75 137 5.2 8.7 0.00 0.00 0.00 32 1017.7
20260503150303 76 135 4.3 13.0 0.00 0.00 0.00 32 1017.7
20260503130803 77 155 2.6 13.0 0.00 0.00 0.00 32 1018.2
20260503130303 77 128 4.3 8.7 0.00 0.00 0.00 31 1018.2
20260503110304 74 84 1.7 7.8 0.00 0.00 0.00 37 1018.9